Flag for U.S.A. Weather past 2 weeks in Port Angeles, Washington, U.S.A.

Now
73 °F

Sunny.


Feels Like: 77 °F
Forecast: 56 / 73 °F
Wind: 8 mph from East

Location: William R. Fairchild International Airport

Current Time: Jul 29, 2015 at 11:23:55 AM

Latest Report: Jul 29, 2015 at 10:53 AM


Visibility: 10 mi

Pressure: 30.21 "Hg

Humidity: 50%

Dew point: 53 °F

Location of Port AngelesLocation

Historic Weather in Port Angeles — Graph

°F

Port Angeles temperature yesterday

Maximum temperature yesterday: 69 °F (at 12:53 PM)
Minimum temperature yesterday: 52 °F (at 5:53 AM)
Average temperature yesterday: 62 °F

Past Weeks' High & Low Weather Summary

 TemperatureHumidityPressure
High86 °F (Jul 18, 4:53 PM)97% (Jul 15, 5:53 AM)30.29 "Hg (Jul 15, 5:53 AM)
Low50 °F (Jul 17, 3:53 AM)28% (Jul 18, 4:53 PM)29.90 "Hg (Jul 22, 8:53 PM)
Average62 °F72%30.06 "Hg
* Reported Jul 14 9:53 AM — Jul 29 9:53 AM, Port Angeles, Weather by CustomWeather, © 2015

Note: Actual official high and low records may vary slightly from our data, if they occured in-between our weather recording intervals... More about our weather records

Advertising

Port Angeles weather history for previous 24 hours

 ConditionsComfort  
Time TempWeatherWind HumidityBarometerVisibility
9:53 AM
Wed, Jul 29
71 °FSunny.5 mph47%30.21 "Hg10 mi
8:53 AM68 °FSunny.3 mph47%30.21 "Hg10 mi
7:53 AM61 °FSunny.3 mph67%30.22 "Hg10 mi
6:53 AM53 °FSunny.5 mph89%30.21 "Hg10 mi
5:53 AM51 °FClear.No wind89%30.20 "Hg10 mi
4:53 AM50 °FClear.No wind93%30.19 "Hg10 mi
4:02 AM52 °FFog.3 mph97%30.20 "Hg1 mi
3:53 AM52 °FFog.No wind97%30.20 "Hg0 mi
3:04 AM54 °FFog.5 mph97%30.21 "Hg0 mi
2:53 AM54 °FFog.3 mph93%30.21 "Hg1 mi
1:53 AM56 °FClear.7 mph84%30.20 "Hg10 mi
12:53 AM57 °FClear.6 mph87%30.21 "Hg10 mi
11:53 PM
Tue, Jul 28
59 °FClear.14 mph84%30.21 "Hg10 mi
10:53 PM60 °FClear.10 mph80%30.22 "Hg10 mi
9:53 PM60 °FSunny.12 mph80%30.22 "Hg10 mi
8:53 PM62 °FSunny.12 mph75%30.21 "Hg10 mi
7:53 PM65 °FSunny.6 mph68%30.21 "Hg10 mi
6:53 PM66 °FSunny.10 mph63%30.22 "Hg10 mi
5:53 PM67 °FSunny.12 mph61%30.23 "Hg10 mi
4:53 PM65 °FSunny.8 mph66%30.24 "Hg10 mi
3:53 PM68 °FSunny.8 mph61%30.25 "Hg10 mi
2:53 PM68 °FSunny.6 mph59%30.26 "Hg10 mi
1:53 PM69 °FSunny.8 mph59%30.27 "Hg10 mi
12:53 PM69 °FSunny.7 mph57%30.28 "Hg10 mi
11:53 AM66 °FSunny.7 mph65%30.29 "Hg10 mi
Weather by CustomWeather, © 2015

See weather overviewHow to use our weather pages